Zurück zum Katalog

CZ-2D R/B

AktivVLEO
NORAD 59396·ROCKET BODY·🇨🇳 China

Gestartet Apr 2, 2024 von Xichang Satellite Launch Center

Loading…

Nächste Überflüge (nächste 24 Stunden)

TLE

AktuellSource: Space-Track

Epoche: Sep 14, 2026, 03:41 UTC

1 59396U 24063B   26257.15374417  .00013161  00000-0  27725-3 0  9999
2 59396  34.7223 195.8957 0015240 230.4398 129.4972 15.44233773137149

Verfolge CZ-2D R/B in Echtzeit mit AllMySat

Download on the App Store